Stations météo

réclame
Mon MeteoGroup
Gilze-Rijen, Pays-Bas (6350): Température de l'air & dewpoint: 30.03.2020 00:00:00 - 05.04.2020 00:00:00 (CEST)Gilze-Rijen, Pays-Bas (6350): Température de l'air 5cm: 30.03.2020 00:00:00 - 05.04.2020 00:00:00 (CEST)Gilze-Rijen, Pays-Bas (6350): Vitesse du vent & gusts: 30.03.2020 00:00:00 - 05.04.2020 00:00:00 (CEST)Gilze-Rijen, Pays-Bas (6350): Direction du vent: 30.03.2020 00:00:00 - 05.04.2020 00:00:00 (CEST)Gilze-Rijen, Pays-Bas (6350): reduced air pressure: 30.03.2020 00:00:00 - 05.04.2020 00:00:00 (CEST)Gilze-Rijen, Pays-Bas (6350): visibility: 30.03.2020 00:00:00 - 05.04.2020 00:00:00 (CEST)Gilze-Rijen, Pays-Bas (6350): Quantités de précipitations: 30.03.2020 00:00:00 - 05.04.2020 00:00:00 (CEST)
Date & Time tt [°C] td [°C] tt 5cm [°C] ff [km/h] ff [knt] fx [km/h] fx [knt] dd ppp [hPa] vv [km] rr [mm]
05.04.2020 00:00:00 8,2 -2,7 0,8 9 5 14 8 E 1023,1 10 0,0
04.04.2020 23:00:00 8,5 -2,8 1,9 9 5 14 8 ESE 1023,2 10 0,0
04.04.2020 22:00:00 9,3 -2,5 3,6 8 4 14 8 ESE 1023,3 10 0,0
04.04.2020 21:00:00 10,8 -1,5 7,6 11 6 14 8 ESE 1023,3 10 0,0
04.04.2020 20:00:00 12,9 -0,1 10,8 11 6 22 12 ESE 1022,9 10 0,0
04.04.2020 19:00:00 14,7 -0,3 14,6 13 7 25 14 ESE 1022,4 10 0,0
04.04.2020 18:00:00 15,4 0,0 16,4 13 7 22 12 E 1022,5 10 0,0
04.04.2020 17:00:00 15,6 -0,4 17,4 9 5 25 14 E 1022,8 10 0,0
04.04.2020 16:00:00 15,3 -0,2 17,6 11 6 22 12 S 1023,2 10 0,0
04.04.2020 15:00:00 14,2 -0,7 17,0 15 8 25 14 - 1023,5 10 0,0
04.04.2020 14:00:00 13,6 -1,0 16,5 13 7 25 14 S 1024,0 10 0,0
04.04.2020 13:00:00 13,5 -1,2 15,6 13 7 25 14 S 1024,4 10 0,0
04.04.2020 12:00:00 12,3 -2,1 14,5 15 8 25 14 SSE 1024,8 10 0,0
04.04.2020 11:00:00 11,3 -1,0 12,6 16 9 29 16 S 1024,8 10 0,0
04.04.2020 10:00:00 9,1 -1,4 10,1 13 7 22 12 SSE 1024,3 10 0,0
04.04.2020 09:00:00 5,5 -0,6 5,0 8 4 11 6 S 1024,0 10 0,0
04.04.2020 08:00:00 0,6 -2,5 -1,8 9 5 11 6 S 1023,4 10 0,0
04.04.2020 07:00:00 -0,3 -3,2 -5,6 5 3 7 4 S 1023,0 10 0,0
04.04.2020 06:00:00 -0,4 -3,4 -6,1 4 2 7 4 SE 1022,7 10 0,0
04.04.2020 05:00:00 0,3 -3,0 -5,8 4 2 7 4 SE 1022,5 10 0,0
04.04.2020 04:00:00 -0,7 -3,0 -6,0 4 2 11 6 SE 1022,4 10 0,0
04.04.2020 03:00:00 -1,7 -3,4 -5,3 2 1 4 2 SE 1022,2 10 0,0
04.04.2020 02:00:00 -1,4 -3,2 -5,3 0 0 7 4 N 1022,0 10 0,0
04.04.2020 01:00:00 -1,0 -3,8 -4,8 4 2 7 4 S 1021,6 10 0,0
04.04.2020 00:00:00 -0,1 -2,8 -4,5 4 2 7 4 S 1021,3 10 0,0
03.04.2020 23:00:00 0,9 -2,6 -3,5 4 2 7 4 S 1021,2 10 0,0
03.04.2020 22:00:00 2,9 -2,2 -2,4 4 2 4 2 S 1020,9 10 0,0
03.04.2020 21:00:00 6,1 -2,1 0,1 5 3 22 12 WNW 1020,4 10 0,0
03.04.2020 20:00:00 7,8 -2,3 6,3 15 8 29 16 WNW 1019,8 10 0,0
03.04.2020 19:00:00 9,0 -2,4 9,2 18 10 36 19 W 1019,4 10 0,0
03.04.2020 18:00:00 9,7 -2,8 10,8 22 12 36 19 NW 1018,8 10 0,0
03.04.2020 17:00:00 10,2 -1,1 10,9 24 13 43 23 W 1018,4 10 0,0
03.04.2020 16:00:00 10,5 -0,6 12,4 26 14 43 23 WNW 1018,2 10 0,0
03.04.2020 15:00:00 9,7 -0,7 10,7 18 10 40 21 W 1017,8 10 0,0
03.04.2020 14:00:00 9,2 0,7 9,9 21 11 36 19 WNW 1017,6 10 0,0
03.04.2020 13:00:00 9,0 0,9 10,2 26 14 36 19 W 1017,3 10 0,0
03.04.2020 12:00:00 9,4 1,8 9,9 21 11 32 18 WNW 1016,7 10 0,0
03.04.2020 11:00:00 9,0 3,6 10,0 21 11 32 18 W 1016,2 10 0,0
03.04.2020 10:00:00 8,8 4,9 9,3 18 10 29 16 W 1015,3 10 0,0
03.04.2020 09:00:00 8,1 4,9 7,9 9 5 18 10 W 1014,6 10 0,0
03.04.2020 08:00:00 7,5 4,5 7,0 9 5 14 8 W 1014,1 10 0,0
03.04.2020 07:00:00 7,4 4,4 6,7 9 5 14 8 WSW 1013,4 10 0,0
03.04.2020 06:00:00 7,0 4,5 6,1 9 5 14 8 WSW 1012,9 10 0,0
03.04.2020 05:00:00 6,7 4,1 5,1 9 5 14 8 WSW 1012,5 10 0,0
03.04.2020 04:00:00 7,3 5,6 6,8 9 5 18 10 WSW 1012,2 10 0,0
03.04.2020 03:00:00 7,3 5,4 6,3 11 6 18 10 WSW 1011,9 10 0,0
03.04.2020 02:00:00 8,4 5,6 7,9 11 6 22 12 W 1011,9 10 0,0
03.04.2020 01:00:00 8,4 4,9 8,1 13 7 25 14 WSW 1012,1 10 0,0
03.04.2020 00:00:00 8,4 4,5 7,7 11 6 18 10 SW 1011,8 10 0,0
02.04.2020 23:00:00 8,4 4,7 7,7 13 7 25 14 WSW 1012,1 10 0,0
02.04.2020 22:00:00 8,7 3,7 8,3 11 6 22 12 WSW 1012,2 10 0,0
02.04.2020 21:00:00 9,0 2,5 8,5 13 7 22 12 WSW 1012,2 10 0,0
02.04.2020 20:00:00 9,3 2,0 8,8 13 7 25 14 WSW 1012,2 10 0,0
02.04.2020 19:00:00 9,5 1,3 9,5 13 7 25 14 WSW 1012,5 10 0,0
02.04.2020 18:00:00 9,6 0,9 9,8 15 8 32 18 W 1012,6 10 0,0
02.04.2020 17:00:00 10,1 0,8 10,5 16 9 32 18 W 1012,8 10 0,0
02.04.2020 16:00:00 10,5 0,8 11,0 16 9 32 18 WSW 1013,2 10 0,0
02.04.2020 15:00:00 10,9 2,2 10,6 15 8 29 16 W 1013,4 10 0,0
02.04.2020 14:00:00 9,5 1,6 10,3 16 9 25 14 W 1014,1 10 0,0
02.04.2020 13:00:00 9,5 0,7 10,1 11 6 25 14 WSW 1014,5 10 0,0
02.04.2020 12:00:00 9,3 1,4 10,5 13 7 25 14 SW 1015,0 10 0,0
02.04.2020 11:00:00 8,5 2,0 10,2 11 6 18 10 SW 1015,4 10 0,0
02.04.2020 10:00:00 6,0 2,5 6,7 9 5 18 10 WSW 1015,5 10 0,0
02.04.2020 09:00:00 3,8 1,8 4,0 9 5 14 8 SW 1015,7 10 0,0
02.04.2020 08:00:00 -0,3 -0,9 -2,6 8 4 11 6 SW 1016,0 8 0,0
02.04.2020 07:00:00 -2,3 -3,1 -6,4 5 3 11 6 S 1016,1 10 0,0
02.04.2020 06:00:00 -2,1 -2,5 -5,6 4 2 11 6 SW 1016,3 4,8 0,0
02.04.2020 05:00:00 -1,4 -2,0 -3,7 9 5 11 6 SSW 1016,7 10 0,0
02.04.2020 04:00:00 -1,4 -2,1 -5,1 2 1 11 6 WSW 1017,2 8 0,0
02.04.2020 03:00:00 0,0 -1,2 -4,2 4 2 11 6 WSW 1017,6 10 0,0
02.04.2020 02:00:00 0,3 -0,8 -3,5 2 1 4 2 W 1017,8 10 0,0
02.04.2020 01:00:00 2,9 0,5 1,1 4 2 11 6 W 1018,2 10 0,0
02.04.2020 00:00:00 1,6 -0,7 -1,2 5 3 11 6 W 1018,6 10 0,0
01.04.2020 23:00:00 1,8 -0,5 -3,0 2 1 4 2 W 1019,0 10 0,0
01.04.2020 22:00:00 3,7 0,6 0,0 4 2 18 10 - 1019,1 10 0,0
01.04.2020 21:00:00 5,6 0,6 4,3 13 7 22 12 NNW 1019,1 10 0,0
01.04.2020 20:00:00 7,1 0,0 6,5 16 9 22 12 N 1019,1 10 0,0
01.04.2020 19:00:00 8,5 0,0 8,7 11 6 22 12 NNE 1019,3 10 0,0
01.04.2020 18:00:00 9,5 -0,6 10,9 13 7 22 12 NNE 1019,4 10 0,0
01.04.2020 17:00:00 9,7 -0,9 11,7 9 5 22 12 NNE 1019,8 10 0,0
01.04.2020 16:00:00 9,6 -1,1 9,9 11 6 25 14 N 1020,6 10 0,0
01.04.2020 15:00:00 10,5 -1,7 12,8 11 6 25 14 - 1021,3 10 0,0
01.04.2020 14:00:00 9,7 -1,8 12,1 8 4 18 10 - 1021,9 10 0,0
01.04.2020 13:00:00 8,6 -2,3 11,1 9 5 18 10 - 1022,8 10 0,0
01.04.2020 12:00:00 7,8 -3,6 10,2 9 5 25 14 - 1023,7 10 0,0
01.04.2020 11:00:00 6,7 -3,6 8,5 9 5 18 10 NE 1024,4 10 0,0
01.04.2020 10:00:00 4,8 -1,7 5,9 4 2 7 4 - 1024,6 10 0,0
01.04.2020 09:00:00 1,4 -2,0 1,6 5 3 7 4 NNE 1024,8 10 0,0
01.04.2020 08:00:00 -2,5 -3,2 -6,4 2 1 7 4 NNW 1024,9 10 0,0
01.04.2020 07:00:00 -3,5 -5,2 -8,2 4 2 4 2 - 1024,9 10 0,0
01.04.2020 06:00:00 -2,8 -4,1 -7,9 2 1 4 2 NNE 1025,2 10 0,0
01.04.2020 05:00:00 -2,5 -4,4 -7,7 2 1 4 2 NNE 1025,6 10 0,0
01.04.2020 04:00:00 -1,8 -4,1 -6,9 2 1 4 2 ENE 1026,3 10 0,0
01.04.2020 03:00:00 -1,0 -3,4 -5,4 9 5 11 6 NNE 1026,7 10 0,0
01.04.2020 02:00:00 -0,3 -3,1 -2,4 11 6 18 10 NNE 1027,3 10 0,0
01.04.2020 01:00:00 0,7 -2,7 -2,6 9 5 14 8 N 1027,9 10 0,0
01.04.2020 00:00:00 1,9 -2,1 -0,4 11 6 14 8 N 1028,2 10 0,0
31.03.2020 23:00:00 1,9 -2,4 -1,3 9 5 11 6 N 1028,3 10 0,0
31.03.2020 22:00:00 2,5 -2,1 -0,2 9 5 22 12 NNE 1028,6 10 0,0
31.03.2020 21:00:00 4,9 -1,9 3,7 13 7 29 16 N 1028,8 10 0,0
31.03.2020 20:00:00 6,8 -2,2 5,8 18 10 25 14 N 1028,9 10 0,0
31.03.2020 19:00:00 8,7 -8,0 8,7 13 7 25 14 NNE 1028,9 10 0,0
31.03.2020 18:00:00 9,2 -6,3 10,3 13 7 25 14 N 1029,1 10 0,0
31.03.2020 17:00:00 9,7 -6,3 11,1 16 9 25 14 - 1029,5 10 0,0
31.03.2020 16:00:00 9,6 -6,5 11,6 16 9 36 19 NNE 1030,0 10 0,0
31.03.2020 15:00:00 9,0 -4,6 11,2 21 11 32 18 NNE 1030,6 10 0,0
31.03.2020 14:00:00 8,6 -3,7 11,6 13 7 29 16 - 1031,1 10 0,0
31.03.2020 13:00:00 7,8 -2,3 10,2 15 8 29 16 ENE 1031,1 10 0,0
31.03.2020 12:00:00 7,1 -1,5 8,7 16 9 32 18 NE 1031,9 10 0,0
31.03.2020 11:00:00 5,5 -1,6 6,8 21 11 32 18 NE 1032,1 10 0,0
31.03.2020 10:00:00 3,7 -0,6 4,2 16 9 25 14 NE 1032,0 10 0,0
31.03.2020 09:00:00 1,8 -0,7 1,5 13 7 18 10 NE 1031,7 10 0,0
31.03.2020 08:00:00 -0,4 -1,1 -1,8 13 7 18 10 NNE 1031,3 9 0,0
31.03.2020 07:00:00 -0,7 -1,2 -2,4 11 6 14 8 NNE 1030,4 6 0,0
31.03.2020 06:00:00 -0,2 -0,7 -1,6 11 6 14 8 NNE 1030,0 8 0,0
31.03.2020 05:00:00 0,2 -0,4 -2,3 11 6 14 8 NNE 1029,6 10 0,0
31.03.2020 04:00:00 0,5 0,1 -2,7 9 5 11 6 NNE 1029,5 10 0,0
31.03.2020 03:00:00 0,7 0,3 -1,9 9 5 11 6 NNE 1029,3 10 0,0
31.03.2020 02:00:00 1,4 0,9 -1,5 8 4 11 6 N 1029,1 10 0,0
31.03.2020 01:00:00 2,3 1,3 0,5 9 5 18 10 N 1028,9 10 0,0
31.03.2020 00:00:00 3,6 2,1 2,4 11 6 18 10 N 1028,7 10 0,0
30.03.2020 23:00:00 4,5 2,7 3,2 13 7 18 10 N 1028,6 10 0,0
30.03.2020 22:00:00 5,3 2,7 4,3 9 5 22 12 N 1028,3 10 0,0
30.03.2020 21:00:00 6,1 3,3 5,7 15 8 36 19 N 1028,1 10 0,0
30.03.2020 20:00:00 7,5 2,5 7,0 18 10 32 18 NNW 1027,8 10 0,0
30.03.2020 19:00:00 7,8 3,1 7,3 13 7 25 14 NNW 1027,9 10 0,0
30.03.2020 18:00:00 6,9 2,7 6,7 18 10 32 18 N 1028,2 10 0,1
30.03.2020 17:00:00 7,6 3,4 7,8 8 4 29 16 NW 1028,5 10 0,1
30.03.2020 16:00:00 8,4 1,5 9,3 15 8 29 16 N 1029,0 10 0,0
30.03.2020 15:00:00 8,2 1,9 8,7 15 8 22 12 WNW 1029,7 10 0,0
30.03.2020 14:00:00 7,9 0,5 9,8 11 6 25 14 W 1030,3 10 0,0
30.03.2020 13:00:00 7,0 -0,6 8,0 9 5 29 16 WNW 1031,0 10 0,0
30.03.2020 12:00:00 6,6 -1,3 7,2 9 5 18 10 WNW 1031,6 10 0,0
30.03.2020 11:00:00 6,4 -1,6 8,4 9 5 18 10 NW 1032,3 10 0,0
30.03.2020 10:00:00 4,6 -2,3 5,7 5 3 11 6 W 1032,8 10 0,0
30.03.2020 09:00:00 2,1 -2,7 1,9 5 3 11 6 W 1032,9 10 0,0
30.03.2020 08:00:00 -1,3 -4,1 -2,0 2 1 7 4 W 1033,2 10 0,0
30.03.2020 07:00:00 -2,9 -5,3 -5,3 4 2 7 4 - 1033,5 10 0,0
30.03.2020 06:00:00 -3,3 -6,0 -6,7 4 2 7 4 - 1033,8 10 0,0
30.03.2020 05:00:00 -3,2 -6,5 -8,5 4 2 11 6 - 1034,2 10 0,0
30.03.2020 04:00:00 -2,4 -6,7 -5,3 9 5 11 6 N 1034,6 10 0,0
30.03.2020 03:00:00 -1,6 -5,9 -3,3 11 6 18 10 N 1035,2 10 0,0
30.03.2020 02:00:00 -0,5 -5,5 -1,6 13 7 22 12 N 1035,5 10 0,0
30.03.2020 01:00:00 0,0 -5,9 -1,4 13 7 22 12 N 1035,6 10 0,0
30.03.2020 00:00:00 0,6 -7,0 -0,6 16 9 25 14 N 1035,8 10 0,0

tt = Température de l'air
td = dewpoint
tt 5cm = Température de l'air 5cm
ff = Vitesse du vent
fx = gusts
dd = Direction du vent
ppp = reduced air pressure
vv = visibility
rr = Quantités de précipitations

stations d'obs. à proximité